Regional Weather Roundup
Issued by NWS Cleveland, OH

Home | Current Version | Previous Version | Text Only | Print | Product List | Glossary Off
Versions: 1 2 3 4 5 6 7 8 9 10 11 12 13 14 15 16 17 18 19 20 21 22 23 24 25 26 27 28 29 30 31 32 33 34 35 36 37 38 39 40 41 42 43 44 45 46 47 48 49 50

163
ASUS41 KCLE 011712
RWRCLE
OHIO REGIONAL WEATHER ROUNDUP
NATIONAL WEATHER SERVICE WILMINGTON, OH
1200 PM EST WED MAR 01 2017

NOTE: "FAIR" INDICATES FEW OR NO CLOUDS BELOW 12,000 FEET WITH NO
SIGNIFICANT WEATHER AND/OR OBSTRUCTIONS TO VISIBILITY.

OHZ001>008-015>018-024>027-034-035-043-044-011800-
   NORTHWEST OHIO

CITY           SKY/WX    TMP DP  RH WIND       PRES   REMARKS
DEFIANCE       CLOUDY    56  48  74 SW17G31   29.44R
FINDLAY        CLOUDY    58  48  69 SW24G37   29.46R
TOLEDO EXPRESS CLOUDY    57  51  80 SW26G35   29.41R
TOLEDO EXEC    CLOUDY    60  52  74 SW22G38   29.41F
LIMA           NOT AVBL
$$

OHZ009>014-019>023-028>033-038-089-011800-
   NORTHEAST OHIO

CITY           SKY/WX    TMP DP  RH WIND       PRES   REMARKS
CLE-HOPKINS    FAIR      58  49  72 S18G29    29.47R
CLE-LAKEFRONT  FAIR      58  49  72 S20G28    29.43R
CUY CO. ARPT   PTSUNNY   57  52  82 SW20G30   29.45F
LORAIN-ELYRIA  FAIR      57  48  72 SW22G32   29.45R
ASHTABULA      PTSUNNY   54  50  86 S17G28    29.42F
AKRON-CANTON   CLOUDY    54  49  83 S22G32    29.49F
WOOSTER        FAIR      54  49  83 SW21G31   29.48F
MANSFIELD      FAIR      55  50  83 S21G28    29.48R
YOUNGSTOWN     LGT RAIN  53  50  89 S16G23    29.48F
$$

OHZ042-051>053-060>062-070>072-077>081-011800-
  SOUTHWEST OHIO

CITY           SKY/WX    TMP DP  RH WIND       PRES   REMARKS
CINC-COVINGTON CLOUDY    59  52  77 SW18G29   29.63R
CINC-LUNKEN    CLOUDY    60  53  77 SW17G28   29.64R
HAMILTON       CLOUDY    60  53  77 W15G29    29.61R
DAYTON         CLOUDY    56  50  80 SW26G37   29.57R
WRIGHT-PAT AFB CLOUDY    58  53  85 SW25G38   29.56R
DAYTON GENERAL CLOUDY    58  50  75 SW18G36   29.59R
WILMINGTON     FAIR      58  52  80 SW20G37   29.58F
$$

OHZ036-037-039>041-045>050-054>059-063>069-073>076-082>088-011800-
  CENTRAL AND SOUTHEAST OHIO

CITY           SKY/WX    TMP DP  RH WIND       PRES   REMARKS
COLUMBUS       PTSUNNY   57  52  83 S14G23    29.56F
OSU AIRPORT    FAIR      58  53  84 SW16G29   29.55S
BOLTON FIELD   MOSUNNY   55  52  88 S22G29    29.56F
RICKENBACK AFB FAIR      55  52  89 S26G33    29.57F
NEWARK         FAIR      56  51  84 S16G24    29.54F
MARION         FAIR      58  51  78 SW22G32   29.51R
LANCASTER      FAIR      58  50  75 S20G25    29.59F
ZANESVILLE     FAIR      55  50  83 S13       29.58R
NEW PHILLY     FAIR      55  51  86 S8        29.54F
$$




USA.gov is the U.S. government's official web portal to all federal, state and local government web resources and services.